Flag for U.S.A. Weather past 2 weeks in Provo, Utah, U.S.A.

Now
97 °F

Passing clouds.


Feels Like: 92 °F
Forecast: 65 / 95 °F
Wind: 3 mph from North

Location: Provo Municipal

Current Time: Jul 22, 2014 at 7:18:20 PM

Latest Report: Jul 22, 2014 at 6:59 PM


Visibility: 15 mi

Pressure: 30.10 "Hg

Humidity: 11%

Dew point: 34 °F

Location of ProvoLocation

Historic Weather in Provo — Graph

°F

Provo temperature yesterday

Maximum temperature yesterday: 91 °F (at 2:52 PM)
Minimum temperature yesterday: 61 °F (at 6:15 AM)
Average temperature yesterday: 73 °F

Past Weeks' High & Low Weather Summary

 TemperatureHumidityPressure
High99 °F (Jul 14, 3:59 PM)94% (Jul 11, 12:15 AM)30.27 "Hg (Jul 11, 12:15 AM)
Low50 °F (Jul 7, 12:49 PM)13% (Jul 21, 2:52 PM)29.93 "Hg (Jul 15, 6:50 PM)
Average74 °F46%30.08 "Hg
* Reported Jul 7 10:47 AM — Jul 22 10:55 AM, Provo, Weather by CustomWeather, © 2014

Note: Actual official high and low records may vary slightly from our data, if they occured in-between our weather recording intervals... More about our weather records

Advertising

Provo weather history for previous 24 hours

 ConditionsComfort  
Time TempWeatherWind HumidityBarometerVisibility
10:55 AM
Jul 22
84 °FSunny.6 mph19%30.27 "Hg15 mi
9:58 AM79 °FSunny.No wind23%30.27 "Hg15 mi
8:58 AM73 °FSunny.6 mph27%30.26 "Hg15 mi
7:58 AM66 °FSunny.7 mph35%30.25 "Hg15 mi
6:35 AM61 °FClear.5 mph42%30.23 "Hg10 mi
6:15 AM63 °FClear.3 mph39%30.22 "Hg10 mi
5:55 AM61 °FClear.6 mph42%30.22 "Hg10 mi
5:35 AM63 °FClear.7 mph37%30.22 "Hg10 mi
5:15 AM61 °FClear.6 mph39%30.22 "Hg10 mi
4:55 AM61 °FClear.5 mph42%30.22 "Hg10 mi
4:35 AM61 °FClear.No wind45%30.21 "Hg10 mi
3:55 AM64 °FClear.6 mph40%30.20 "Hg10 mi
3:35 AM63 °FClear.No wind42%30.19 "Hg10 mi
2:55 AM66 °FClear.5 mph37%30.18 "Hg10 mi
2:35 AM64 °FClear.6 mph40%30.18 "Hg10 mi
2:15 AM66 °FClear.5 mph40%30.17 "Hg10 mi
1:55 AM64 °FClear.3 mph46%30.17 "Hg10 mi
1:35 AM68 °FClear.3 mph35%30.16 "Hg10 mi
1:15 AM70 °FClear.No wind38%30.16 "Hg10 mi
12:55 AM64 °FClear.No wind40%30.16 "Hg10 mi
12:35 AM66 °FClear.6 mph43%30.15 "Hg10 mi
12:15 AM70 °FClear.6 mph40%30.14 "Hg10 mi
11:55 PM
Jul 21
72 °FClear.6 mph36%30.14 "Hg10 mi
11:35 PM75 °FClear.6 mph24%30.13 "Hg10 mi
11:15 PM77 °FClear.No wind24%30.12 "Hg10 mi
10:55 PM75 °FClear.7 mph27%30.12 "Hg10 mi
10:35 PM73 °FClear.6 mph33%30.12 "Hg10 mi
10:15 PM77 °FClear.10 mph21%30.11 "Hg10 mi
9:55 PM77 °FClear.8 mph30%30.11 "Hg10 mi
9:35 PM75 °FSunny.7 mph34%30.10 "Hg7 mi
8:51 PM82 °FSunny.7 mph32%30.09 "Hg15 mi
7:51 PM86 °FPassing clouds.12 mph33%30.07 "Hg15 mi
Weather by CustomWeather, © 2014

See weather overviewHow to use our weather pages